Location: Moscow
(55.7500°N, 37.5830°E)
Time: 11:37:21
(UTC+03:00)

Explorer 7 - Pass Details

Date: 01 December 2021
Orbit: 483 x 674 km, 50.3° (Epoch: 19 January)

Event Time Altitude Azimuth Distance (km) Brightness Sun altitude
Rises 11:25:17 0° 268° (W) 2,646 10.2 11.6°
Reaches altitude 10° 11:27:44 10° 257° (WSW) 1,729 9.4 11.6°
Maximum altitude 11:31:07 29° 197° (SSW) 942 9.2 11.7°
Drops below altitude 10° 11:34:24 10° 136° (SE) 1,673 10.4 11.8°
Sets 11:36:43 0° 125° (SE) 2,543 11.0 11.9°
